Location: Washington
(38.8950°N, 77.0370°W)
Time: 08:07:04
(UTC-04:00)

Amateur Radio Satellites - All Passes

Search period start: 21 September 2014 07:37
Search period end: 22 September 2014 07:37
Location: Washington, 38.8950°N, 77.0370°W

Satellite Date Start Highest point End Downlink Frequencies (MHz)
Time Altitude Azimuth
Hamsat 21 Sep 07:48:22 07:52:03 29° 290° (WNW) 07:55:42 145.90 MHz
MaSat-1 21 Sep 08:03:37 08:08:27 51° 110° (ESE) 08:13:15 437.345 MHz
SO-67 21 Sep 08:10:10 08:13:37 69° 101° (E) 08:17:02 435.3500 MHz FM
JAS-2 21 Sep 08:19:44 08:24:44 27° 293° (WNW) 08:30:14 435.800 - 435.900 CW/SSB, 435.910 FM
UOSAT-12 21 Sep 08:29:02 08:33:22 34° 51° (NE) 08:37:38 437.025 FM, 437.400 FM
SO-50 21 Sep 08:41:32 08:44:51 19° 250° (WSW) 08:48:11 436.795 FM
STRAND 1 21 Sep 08:44:00 08:45:43 12° 270° (W) 08:47:27 ?
ISS 21 Sep 08:55:15 08:58:32 58° 36° (NE) 09:01:49 145.800 FM
RS-15 21 Sep 09:23:56 09:30:18 17° 0° (N) 09:36:45 29.354 - 29.394 USB, Beacon 29.352 USB
MaSat-1 21 Sep 09:41:42 09:45:26 21° 306° (NW) 09:49:07 437.345 MHz
UKube-1 21 Sep 09:46:19 09:49:15 18° 94° (E) 09:52:11 145.840 MHz, 145.915 MHz
HO-68 21 Sep 10:05:16 10:12:25 65° 103° (ESE) 10:19:32 435.675 MHz FM
UOSAT-12 21 Sep 10:09:27 10:13:22 26° 248° (WSW) 10:17:13 437.025 FM, 437.400 FM
ISS 21 Sep 10:33:09 10:34:53 14° 231° (SW) 10:36:37 145.800 FM
FUNcube-1 21 Sep 10:57:35 11:01:48 35° 97° (E) 11:05:57 145.950 - 145.970 MHz USB
Oscar 11 21 Sep 11:02:45 11:07:06 82° 284° (WNW) 11:11:25 145.825 FM, Beacon 2401.500 USB
PCSat 21 Sep 11:05:39 11:09:28 20° 105° (ESE) 11:13:17 145.825 MHz
UKube-1 21 Sep 11:21:32 11:25:34 38° 289° (WNW) 11:29:36 145.840 MHz, 145.915 MHz
RS-15 21 Sep 11:38:31 11:47:55 30° 36° (NE) 11:57:33 29.354 - 29.394 USB, Beacon 29.352 USB
HO-68 21 Sep 11:54:02 11:59:31 24° 301° (WNW) 12:04:59 435.675 MHz FM
Oscar 19 21 Sep 12:17:57 12:18:12 10° 59° (ENE) 12:18:27 437.125 CW, 437.150 USB
Sapphire 21 Sep 12:20:08 12:25:31 86° 117° (ESE) 12:30:58 437.095 MHz 1200 baud AX-25 AFSK
FUNcube-1 21 Sep 12:34:25 12:37:57 22° 293° (WNW) 12:41:27 145.950 - 145.970 MHz USB
Oscar 10/S400 21 Sep 12:36:04 12:43:53 11° 157° (SSE) 12:50:05 145.825 - 145.975 CW/USB, Beacon 145.810 USB
PCSat 21 Sep 12:47:09 12:52:26 53° 302° (WNW) 12:57:45 145.825 MHz
Oscar 16 21 Sep 12:52:48 12:56:52 24° 66° (ENE) 13:00:57 437.025 USB, Beacon 2401.1428
JAS-1B 21 Sep 12:56:00 13:01:59 23° 63° (ENE) 13:07:18 435.800 - 435.900 CW/SSB
ITAMSAT 1 21 Sep 13:39:56 13:44:13 27° 67° (ENE) 13:48:32 435.822 SSB
Gurwin Techsat 1B 21 Sep 13:41:34 13:44:08 14° 61° (ENE) 13:46:42 435.225 FM
Uribyol 2 21 Sep 13:43:23 13:47:53 31° 68° (ENE) 13:52:24 436.500 FM
RS-15 21 Sep 13:50:37 14:01:48 88° 241° (WSW) 14:13:29 29.354 - 29.394 USB, Beacon 29.352 USB
Oscar 19 21 Sep 13:51:29 13:56:40 82° 75° (ENE) 14:01:54 437.125 CW, 437.150 USB
Sapphire 21 Sep 14:06:28 14:09:40 16° 316° (NW) 14:12:53 437.095 MHz 1200 baud AX-25 AFSK
AO-27 21 Sep 14:14:32 14:19:36 59° 73° (ENE) 14:24:41 436.795 MHz FM
TMSAT-1 21 Sep 14:15:48 14:19:39 21° 65° (ENE) 14:23:32 436.925 FM
AO-Echo 21 Sep 14:28:21 14:33:05 90° 254° (WSW) 14:37:49 ?
Oscar 16 21 Sep 14:31:06 14:35:57 40° 262° (W) 14:40:51 437.025 USB, Beacon 2401.1428
AO-7 21 Sep 14:33:10 14:37:58 17° 50° (NE) 14:42:46 29.400 - 29.500 MHz
JAS-1B 21 Sep 14:43:28 14:52:07 72° 257° (WSW) 14:59:21 435.800 - 435.900 CW/SSB
Gurwin Techsat 1B 21 Sep 15:18:07 15:23:24 76° 257° (WSW) 15:28:44 435.225 FM
ITAMSAT 1 21 Sep 15:18:53 15:23:33 34° 263° (W) 15:28:16 435.822 SSB
Uribyol 2 21 Sep 15:22:48 15:27:17 30° 264° (W) 15:31:49 436.500 FM
Oscar 19 21 Sep 15:35:36 15:36:36 11° 271° (W) 15:37:36 437.125 CW, 437.150 USB
Uosat F 21 Sep 15:41:11 15:45:00 23° 65° (ENE) 15:48:50 435.120 FM
TMSAT-1 21 Sep 15:54:08 15:59:12 48° 261° (W) 16:04:19 436.925 FM
AO-27 21 Sep 15:56:30 15:59:28 15° 268° (W) 16:02:28 436.795 MHz FM
RS-15 21 Sep 16:05:13 16:12:39 21° 260° (W) 16:20:19 29.354 - 29.394 USB, Beacon 29.352 USB
AO-7 21 Sep 16:21:08 16:29:25 77° 70° (ENE) 16:37:43 29.400 - 29.500 MHz
JAS-1B 21 Sep 16:41:00 16:43:19 11° 270° (W) 16:45:32 435.800 - 435.900 CW/SSB
JAS-2 21 Sep 16:48:44 16:51:27 14° 61° (ENE) 16:54:09 435.800 - 435.900 CW/SSB, 435.910 FM
OPAL 21 Sep 16:51:27 16:54:27 16° 94° (E) 16:57:25 ?
Saudisat 1A 21 Sep 16:52:47 16:57:06 60° 118° (ESE) 17:01:28 436.775 MHz
Hamsat 21 Sep 17:05:58 17:08:22 15° 65° (ENE) 17:10:46 145.90 MHz
Uosat F 21 Sep 17:18:51 17:23:31 40° 261° (W) 17:28:13 435.120 FM
MaSat-1 21 Sep 17:58:08 18:01:51 75° 64° (ENE) 18:04:59 437.345 MHz
AO-7 21 Sep 18:17:02 18:22:55 21° 267° (W) 18:28:50 29.400 - 29.500 MHz
OPAL 21 Sep 18:28:38 18:33:42 59° 289° (WNW) 18:38:40 ?
JAS-2 21 Sep 18:30:48 18:36:01 63° 259° (WSW) 18:41:10 435.800 - 435.900 CW/SSB, 435.910 FM
Saudisat 1A 21 Sep 18:34:15 18:37:04 17° 316° (NW) 18:39:55 436.775 MHz
Hamsat 21 Sep 18:39:41 18:43:54 49° 261° (W) 18:48:08 145.90 MHz
SO-67 21 Sep 18:42:40 18:45:07 18° 70° (ENE) 18:47:34 435.3500 MHz FM
KITSAT 1 21 Sep 19:11:07 19:19:03 64° 114° (ESE) 19:27:01 435.175 FM
STRAND 1 21 Sep 19:13:20 19:17:41 27° 96° (E) 19:22:01 ?
PCSat 21 Sep 19:54:18 19:57:28 15° 44° (NE) 20:00:37 145.825 MHz
SO-67 21 Sep 20:15:16 20:18:00 22° 265° (W) 20:20:44 435.3500 MHz FM
HO-68 21 Sep 20:32:30 20:39:07 43° 66° (ENE) 20:45:45 435.675 MHz FM
UKube-1 21 Sep 20:41:38 20:43:55 14° 64° (ENE) 20:46:12 145.840 MHz, 145.915 MHz
STRAND 1 21 Sep 20:52:17 20:56:51 33° 291° (WNW) 21:01:25 ?
KITSAT 1 21 Sep 21:07:56 21:14:57 32° 314° (NW) 21:22:01 435.175 FM
Sapphire 21 Sep 21:09:27 21:14:45 52° 58° (ENE) 21:20:02 437.095 MHz 1200 baud AX-25 AFSK
SO-50 21 Sep 21:15:01 21:18:17 20° 110° (ESE) 21:21:38 436.795 FM
AO-40 21 Sep 21:22:53 02:52:22 42° 152° (SSE) 04:28:52 Beacon 2401.320
PCSat 21 Sep 21:36:10 21:41:37 87° 243° (WSW) 21:47:02 145.825 MHz
FUNcube-1 21 Sep 21:53:08 21:56:42 24° 68° (ENE) 22:00:21 145.950 - 145.970 MHz USB
Oscar 11 21 Sep 21:56:14 22:00:34 66° 75° (ENE) 22:04:54 145.825 FM, Beacon 2401.500 USB
UKube-1 21 Sep 22:15:28 22:19:40 50° 260° (W) 22:23:54 145.840 MHz, 145.915 MHz
HO-68 21 Sep 22:20:29 22:26:51 35° 263° (W) 22:33:16 435.675 MHz FM
UOSAT-12 21 Sep 22:41:31 22:43:32 13° 107° (ESE) 22:45:34 437.025 FM, 437.400 FM
Sapphire 21 Sep 22:53:51 22:57:45 20° 254° (WSW) 23:01:38 437.095 MHz 1200 baud AX-25 AFSK
SO-50 21 Sep 22:54:19 22:58:32 40° 307° (NW) 23:02:53 436.795 FM
KITSAT 1 21 Sep 23:13:06 23:13:31 10° 342° (NNW) 23:13:56 435.175 FM
FUNcube-1 21 Sep 23:29:06 23:32:56 29° 264° (W) 23:36:53 145.950 - 145.970 MHz USB
UOSAT-12 22 Sep 00:18:29 00:23:04 66° 303° (WNW) 00:27:46 437.025 FM, 437.400 FM
Saudisat 1A 22 Sep 01:20:48 01:24:51 34° 52° (NE) 01:28:52 436.775 MHz
PANSAT 22 Sep 01:28:29 01:30:45 15° 172° (S) 01:33:00 not established
ISS 22 Sep 01:36:40 01:39:45 36° 135° (SE) 01:42:51 145.800 FM
Uribyol 2 22 Sep 01:59:23 02:01:08 12° 90° (E) 02:02:54 436.500 FM
UOSAT-12 22 Sep 02:03:03 02:04:09 11° 323° (NW) 02:05:14 437.025 FM, 437.400 FM
Oscar 19 22 Sep 02:04:50 02:09:26 32° 97° (E) 02:13:59 437.125 CW, 437.150 USB
RS-15 22 Sep 02:08:36 02:12:40 13° 96° (E) 02:16:42 29.354 - 29.394 USB, Beacon 29.352 USB
AO-27 22 Sep 02:29:29 02:33:37 23° 95° (E) 02:37:44 436.795 MHz FM
JAS-1B 22 Sep 02:31:03 02:35:55 29° 96° (E) 02:40:53 435.800 - 435.900 CW/SSB
AO-Echo 22 Sep 02:36:41 02:41:03 32° 97° (E) 02:45:31 ?
Oscar 16 22 Sep 02:43:42 02:48:54 80° 103° (ESE) 02:54:02 437.025 USB, Beacon 2401.1428
Saudisat 1A 22 Sep 03:00:43 03:04:14 24° 248° (WSW) 03:07:45 436.775 MHz
KITSAT 1 22 Sep 03:06:06 03:12:46 27° 43° (NE) 03:19:23 435.175 FM
PANSAT 22 Sep 03:07:47 03:10:16 17° 185° (S) 03:12:45 not established
ISS 22 Sep 03:13:38 03:16:30 26° 332° (NNW) 03:19:23 145.800 FM
ITAMSAT 1 22 Sep 03:32:21 03:37:36 88° 285° (WNW) 03:42:49 435.822 SSB
Gurwin Techsat 1B 22 Sep 03:35:43 03:40:52 48° 99° (E) 03:45:58 435.225 FM
Uribyol 2 22 Sep 03:35:55 03:41:09 77° 285° (WNW) 03:46:21 436.500 FM
Oscar 19 22 Sep 03:44:16 03:48:40 29° 293° (WNW) 03:53:02 437.125 CW, 437.150 USB
OPAL 22 Sep 04:04:30 04:08:45 26° 64° (ENE) 04:13:02 ?
AO-27 22 Sep 04:08:23 04:13:14 40° 290° (WNW) 04:18:04 436.795 MHz FM
TMSAT-1 22 Sep 04:10:57 04:16:17 76° 103° (ESE) 04:21:34 436.925 FM
RS-15 22 Sep 04:11:55 04:22:53 70° 115° (ESE) 04:33:41 29.354 - 29.394 USB, Beacon 29.352 USB
AO-Echo 22 Sep 04:15:37 04:19:42 27° 292° (WNW) 04:23:52 ?
JAS-1B 22 Sep 04:21:38 04:26:40 33° 293° (WNW) 04:31:44 435.800 - 435.900 CW/SSB
AO-7 22 Sep 04:25:02 04:31:46 27° 95° (E) 04:38:27 29.400 - 29.500 MHz
Oscar 16 22 Sep 04:25:23 04:27:32 13° 300° (WNW) 04:29:40 437.025 USB, Beacon 2401.1428
ISS 22 Sep 04:53:38 04:54:08 10° 351° (N) 04:54:37 145.800 FM
KITSAT 1 22 Sep 05:00:53 05:08:57 76° 244° (WSW) 05:16:58 435.175 FM
ITAMSAT 1 22 Sep 05:14:56 05:16:16 11° 301° (WNW) 05:17:36 435.822 SSB
Gurwin Techsat 1B 22 Sep 05:16:34 05:20:27 21° 295° (WNW) 05:24:20 435.225 FM
Uosat F 22 Sep 05:27:20 05:32:22 69° 102° (ESE) 05:37:22 435.120 FM
JAS-2 22 Sep 05:40:24 05:44:41 18° 93° (E) 05:49:14 435.800 - 435.900 CW/SSB, 435.910 FM
OPAL 22 Sep 05:42:38 05:47:25 38° 260° (W) 05:52:16 ?
SO-50 22 Sep 05:47:08 05:50:26 18° 44° (NE) 05:53:45 436.795 FM
TMSAT-1 22 Sep 05:52:57 05:55:31 14° 299° (WNW) 05:58:05 436.925 FM
AO-7 22 Sep 06:16:51 06:25:00 64° 293° (WNW) 06:33:07 29.400 - 29.500 MHz
RS-15 22 Sep 06:26:12 06:36:02 36° 319° (NW) 06:45:55 29.354 - 29.394 USB, Beacon 29.352 USB
Hamsat 22 Sep 06:26:56 06:30:42 30° 96° (E) 06:34:24 145.90 MHz
STRAND 1 22 Sep 06:28:06 06:32:40 35° 69° (ENE) 06:37:16 ?
ISS 22 Sep 06:30:57 06:32:05 11° 12° (NNE) 06:33:13 145.800 FM
KITSAT 1 22 Sep 06:59:50 07:02:59 13° 261° (W) 07:06:08 435.175 FM
Uosat F 22 Sep 07:08:00 07:10:33 14° 298° (WNW) 07:13:06 435.120 FM
UOSAT-12 22 Sep 07:11:20 07:13:02 12° 38° (NE) 07:14:44 437.025 FM, 437.400 FM
JAS-2 22 Sep 07:23:52 07:30:01 70° 286° (WNW) 07:36:59 435.800 - 435.900 CW/SSB, 435.910 FM
SO-50 22 Sep 07:26:39 07:31:26 66° 242° (WSW) 07:36:15 436.795 FM
